Location: Unspecified
(49.2170°N, 0.0000°E)
Time: 05:45:18
(UTC+00:00)

Altair - All Passes

Search period start: 28 January 2021 00:00
Search period end: 07 February 2021 00:00
Orbit: 1501 x 1682 km, 47.2° (Epoch: 27 January)

Date Brightness Start Highest point End Pass type
(mag) Time Alt. Az. Time Alt. Az. Time Alt. Az.
28 Jan - 01:26:20 10° SE 01:28:30 11° ESE 01:30:42 10° ESE visible
28 Jan - 03:22:06 10° SSW 03:30:56 39° SE 03:39:58 10° ENE visible
28 Jan - 05:24:53 10° WSW 05:34:51 72° SSE 05:44:59 10° E visible
28 Jan - 07:29:27 10° W 07:39:37 80° S 07:49:45 10° ESE daylight
28 Jan - 09:34:16 10° WNW 09:44:00 53° SSW 09:53:35 10° SE daylight
28 Jan - 11:40:16 10° W 11:47:05 21° SW 11:53:50 10° S daylight
29 Jan - 02:57:11 10° SSW 03:05:50 36° SE 03:14:41 10° ENE visible
29 Jan - 04:59:44 10° WSW 05:09:39 70° SSE 05:19:45 10° E visible
29 Jan - 07:04:15 10° W 07:14:23 80° S 07:24:34 10° E daylight
29 Jan - 09:09:03 10° WNW 09:18:51 56° SSW 09:28:32 10° SE daylight
29 Jan - 11:14:49 10° W 11:22:03 23° SW 11:29:12 10° S daylight
30 Jan - 02:32:19 10° SSW 02:40:45 34° SE 02:49:24 10° ENE visible
30 Jan - 04:34:36 10° WSW 04:44:28 68° SSE 04:54:32 10° E visible
30 Jan - 06:39:02 10° W 06:49:10 81° S 06:59:21 10° E visible
30 Jan - 08:43:49 10° WNW 08:53:42 58° SSW 09:03:28 10° SE daylight
30 Jan - 10:49:24 10° W 10:57:01 25° SW 11:04:32 10° S daylight
31 Jan - 02:07:30 10° SSW 02:15:41 31° SE 02:24:05 10° E visible
31 Jan - 04:09:29 10° WSW 04:19:17 66° SSE 04:29:18 10° E visible
31 Jan - 06:13:50 10° W 06:23:57 81° S 06:34:09 10° E visible
31 Jan - 08:18:37 10° WNW 08:28:32 61° SSW 08:38:22 10° SE daylight
31 Jan - 10:24:02 10° W 10:31:58 27° SW 10:39:48 10° S daylight
01 Feb - 01:42:41 10° S 01:50:37 29° SE 01:58:45 10° E visible
01 Feb - 03:44:23 10° SW 03:54:07 63° SSE 04:04:05 10° E visible
01 Feb - 05:48:39 10° W 05:58:44 81° S 06:08:56 10° E visible
01 Feb - 07:53:25 10° WNW 08:03:21 63° SSW 08:13:17 10° SE daylight
01 Feb - 09:58:41 10° W 10:06:54 29° SW 10:15:01 10° S daylight
02 Feb - 01:17:56 10° S 01:25:34 27° SE 01:33:24 10° E visible
02 Feb - 03:19:18 10° SW 03:28:57 61° SSE 03:38:51 10° ENE visible
02 Feb - 05:23:27 10° W 05:33:30 81° S 05:43:43 10° E visible
02 Feb - 07:28:12 10° W 07:38:10 65° SSW 07:48:10 10° SE daylight
02 Feb - 09:33:22 10° W 09:41:49 31° SW 09:50:12 10° SSE daylight
03 Feb - 00:53:13 10° S 01:00:31 25° SE 01:08:01 10° E visible
03 Feb - 02:54:14 10° SW 03:03:47 58° SSE 03:13:37 10° ENE visible
03 Feb - 04:58:16 10° W 05:08:17 81° S 05:18:29 10° E visible
03 Feb - 07:02:59 10° W 07:13:00 67° SSW 07:23:01 10° ESE daylight
03 Feb - 09:08:04 10° WNW 09:16:44 34° SW 09:25:21 10° SSE daylight
04 Feb - 00:28:33 10° S 00:35:30 23° SE 00:42:36 10° E visible
04 Feb - 02:29:11 10° SW 02:38:39 56° SSE 02:48:23 10° ENE visible
04 Feb - 04:33:05 10° W 04:43:04 80° S 04:53:16 10° E visible
04 Feb - 06:37:47 10° W 06:47:48 70° SSW 06:57:52 10° ESE visible
04 Feb - 08:42:48 10° WNW 08:51:39 36° SW 09:00:28 10° SSE daylight
05 Feb - 00:03:57 10° S 00:10:29 21° SE 00:17:09 10° E visible
05 Feb - 02:04:09 10° SW 02:13:30 53° SSE 02:23:09 10° ENE visible
05 Feb - 04:07:54 10° WSW 04:17:52 80° S 04:28:03 10° E visible
05 Feb - 06:12:35 10° W 06:22:37 72° SSW 06:32:42 10° ESE visible
05 Feb - 08:17:32 10° WNW 08:26:33 38° SW 08:35:33 10° SSE daylight
05 Feb - 10:26:43 10° WSW 10:29:02 11° WSW 10:31:19 10° SW daylight
05 Feb - 23:39:25 10° SSE 23:45:28 19° SE 23:51:38 10° E visible
06 Feb - 01:39:08 10° SW 01:48:22 50° SSE 01:57:56 10° ENE visible
06 Feb - 03:42:44 10° WSW 03:52:39 79° S 04:02:49 10° E visible
06 Feb - 05:47:24 10° W 05:57:24 73° SSW 06:07:32 10° ESE visible
06 Feb - 07:52:17 10° WNW 08:01:26 41° SW 08:10:36 10° SSE daylight
06 Feb - 10:00:18 10° W 10:04:02 13° WSW 10:07:45 10° SW daylight
06 Feb - 23:14:58 10° SSE 23:20:28 17° SE 23:26:03 10° E night (unlit)
